Location: Elstree
(51.6403°N, 0.2969°W)
Time: 19:31:51
(UTC+00:00)

USA 281 - Pass Details

Date: 03 March 2021
Orbit: 1076 x 1083 km, 106.0° (Epoch: 15 April)

Event Time Altitude Azimuth Distance (km) Brightness Sun altitude
Exits shadow 21:34:26 47° 15° (NNE) 1,398 3.8 -34.3°
Drops below altitude 10° 21:39:30 10° 338° (NNW) 2,928 6.1 -34.9°
Sets 21:42:04 0° 334° (NNW) 3,888 7.0 -35.2°
